Date,TemperatureHighF,TemperatureAvgF,TemperatureLowF,DewpointHighF,DewpointAvgF,DewpointLowF,HumidityHigh,HumidityAvg,HumidityLow,PressureMaxIn,PressureMinIn,WindSpeedMaxMPH,WindSpeedAvgMPH,GustSpeedMaxMPH,PrecipitationSumIn
2014-2-1,62.4,55.3,50.4,52.8,43.4,28.8,98,67,35,29.89,29.72,17,5,0,0.00
2014-2-2,67.5,50.5,35.6,32.5,28.9,25.5,70,45,24,30.03,29.85,7,2,0,0.00
2014-2-3,60.4,46.6,39.2,43.0,31.7,22.4,98,60,23,29.86,29.67,13,2,0,0.01
2014-2-4,65.1,46.0,34.2,41.8,34.4,23.6,98,68,32,30.02,29.86,10,1,0,0.01
2014-2-5,67.6,51.2,39.0,37.4,33.9,31.8,75,53,29,29.97,29.82,11,3,0,0.00
2014-2-6,61.2,51.8,37.2,44.4,35.7,31.6,81,56,39,29.97,29.84,6,1,0,0.00
2014-2-7,72.5,53.3,42.3,46.4,41.3,35.9,98,68,32,30.07,29.89,7,2,0,0.00
2014-2-8,75.7,55.1,39.2,41.8,36.0,22.1,87,54,15,30.16,30.04,9,2,0,0.00
2014-2-9,81.7,61.9,41.0,44.9,39.4,33.6,78,46,24,30.09,29.91,10,2,0,0.00
2014-2-10,78.4,59.5,43.2,43.3,38.4,33.6,79,49,24,29.98,29.76,11,3,0,0.00
2014-2-11,77.4,58.4,42.6,43.2,37.0,31.3,76,49,20,29.99,29.83,12,3,0,0.00
2014-2-12,80.2,59.1,39.4,38.2,22.1,-32.5,70,36,1,30.10,29.92,10,2,0,0.00
2014-2-13,84.7,61.6,40.6,35.1,18.4,-31.6,66,33,1,30.07,29.86,11,2,0,0.00
2014-2-14,88.2,64.0,43.0,38.6,19.4,-30.1,63,32,1,30.04,29.88,8,1,0,0.00
2014-2-15,93.4,67.5,45.7,36.7,12.6,-32.2,57,26,1,30.00,29.85,8,2,0,0.00
2014-2-16,87.8,66.8,49.6,36.8,7.9,-35.2,50,22,1,29.99,29.85,10,2,0,0.00
2014-2-17,91.0,67.7,48.6,36.9,5.2,-34.5,48,20,1,30.02,29.83,9,2,0,0.00
2014-2-18,91.8,66.7,47.1,36.0,3.3,-34.5,51,22,1,29.94,29.77,8,2,0,0.00
2014-2-19,84.2,65.1,48.2,34.7,11.8,-36.9,52,24,1,29.85,29.67,9,3,0,0.00
2014-2-20,75.0,58.1,42.8,32.4,5.3,-42.4,55,24,1,30.00,29.80,14,3,0,0.00
2014-2-21,80.8,63.2,43.7,22.6,-13.7,-40.9,38,11,1,29.98,29.78,9,3,0,0.00
2014-2-22,80.4,60.3,39.9,26.2,-8.5,-40.1,47,17,1,29.89,29.76,11,2,0,0.00
2014-2-23,78.4,62.3,48.6,31.8,5.7,-37.9,39,21,1,29.97,29.84,5,1,0,0.00
2014-2-24,86.0,68.5,51.6,35.8,11.3,-30.7,42,22,1,29.95,29.79,7,2,0,0.00
2014-2-25,75.7,62.7,50.2,44.1,37.5,33.0,55,40,23,29.93,29.83,7,2,0,0.00
2014-2-26,86.0,65.8,48.0,47.4,41.6,36.1,79,45,17,29.95,29.77,7,2,0,0.00
2014-2-27,81.3,64.1,46.2,45.0,41.9,38.2,74,47,25,29.94,29.71,13,3,0,0.00
2014-2-28,83.1,69.9,50.5,46.3,41.4,30.7,74,39,15,29.81,29.70,14,5,0,0.00